Torna al catalogo

FENGYUN 1C DEB

AttivoSSO
NORAD 29936·DEBRIS·🇨🇳 China

Lanciato May 10, 1999 da Taiyuan Satellite Launch Center

Loading…

Prossimi Passaggi (prossime 24 ore)

TLE

AggiornatoSource: Space-Track

Epoca: Sep 14, 2026, 05:58 UTC

1 29936U 99025JJ  26257.24901457  .00000227  00000-0  88156-4 0  9991
2 29936  98.6825  16.9253 0114732  92.4234 269.0092 14.35545455 28848

Traccia FENGYUN 1C DEB in tempo reale con AllMySat

Download on the App Store